Temp
29 29 30 30 30 29 30 30 30 30 30 29 29 29 29 28 28 28 27 26 26 26 25 25 25 25 25 25 25 25 25 25 25 25 25 25 26 26 26 26 26 26 26 26 26 26 25 25 25 25 25 24 24 24 24 24 24 24 24 24 24 24 25
28 29 30 29 29 29 30 30 30 30 30 29 29 29 29 28 28 27 27 26 26 26 26 25 25 25 25 25 25 25 25 25 25 25 25 25 25 25 26 26 26 26 26 26 26 26 25 25 25 25 25 25 25 24 24 24 24 24 24 24 24 24 24
27 28 29 29 29 29 30 30 30 30 30 29 29 29 28 28 27 27 26 26 26 26 26 26 25 25 25 25 25 25 25 25 25 25 26 26 26 26 26 26 26 26 26 26 26 26 26 26 25 25 25 25 25 24 24 24 24 24 24 24 24 25 24
25 27 28 29 29 29 30 30 30 30 30 29 29 29 28 28 27 26 26 26 26 26 26 26 26 26 26 25 25 25 25 25 25 25 26 26 26 26 26 26 26 26 26 26 26 26 26 26 25 25 25 25 25 25 24 24 24 24 24 24 24 25 24
25 26 28 28 28 29 30 30 29 29 29 29 29 29 28 27 27 26 26 26 26 26 26 26 27 27 26 26 26 26 25 25 25 25 26 26 26 26 26 26 26 27 26 26 26 26 26 26 26 25 25 25 25 25 25 25 25 24 24 24 24 25 25
25 26 27 27 28 28 29 29 29 29 29 29 28 28 28 27 27 27 27 26 26 26 26 26 27 27 26 26 26 26 26 25 25 25 25 26 26 26 26 26 26 27 27 27 26 26 26 26 26 26 26 26 26 26 25 25 25 25 25 24 25 25 26
25 25 25 26 27 28 29 29 29 29 28 28 28 28 27 27 27 27 27 26 26 26 26 26 27 27 26 27 26 26 26 26 25 25 25 25 26 26 26 26 26 27 27 27 26 26 26 26 26 26 26 26 26 26 26 25 25 25 25 25 25 25 25
25 24 24 24 25 27 28 29 29 29 28 28 28 27 27 26 27 27 27 26 26 26 26 26 26 26 26 26 26 26 26 26 26 25 25 26 26 26 26 26 26 26 26 26 26 26 26 26 26 26 26 26 26 26 26 25 25 25 25 25 25 25 25
26 25 23 23 23 23 25 26 26 26 27 28 28 27 26 26 26 26 26 26 26 26 26 26 26 25 25 25 25 25 26 26 26 26 26 26 27 27 27 27 27 26 26 26 27 27 26 26 26 26 25 26 25 25 25 25 25 25 25 25 25 25 26
26 25 24 23 22 22 23 23 22 23 25 26 27 26 26 26 26 26 26 26 25 26 25 25 25 25 24 25 25 25 25 25 25 25 26 26 27 27 27 27 27 27 27 27 27 27 27 26 26 26 25 25 25 25 25 25 25 25 26 25 25 25 25
27 26 24 23 22 22 22 22 22 22 23 24 24 25 25 26 26 25 25 25 25 25 25 24 24 24 24 24 24 24 24 25 25 25 25 25 25 26 27 27 28 27 27 27 27 28 27 26 26 25 25 25 25 25 25 25 25 25 26 26 26 26 26
27 26 25 23 22 22 22 22 22 22 22 23 23 23 23 24 24 24 25 25 25 25 24 24 23 23 23 23 24 24 24 24 25 25 25 24 24 25 26 26 27 27 27 27 27 27 27 27 26 26 25 25 25 26 25 25 25 25 25 26 26 26 26
26 26 25 25 24 22 22 22 22 22 22 22 22 22 22 23 23 23 23 23 24 24 24 23 23 23 23 23 24 23 24 24 24 24 24 24 24 24 24 25 26 27 27 27 27 27 27 27 27 26 26 25 26 26 26 25 25 25 25 25 26 26 26
24 24 24 24 24 22 22 22 22 22 21 21 21 22 22 22 22 22 22 22 23 23 23 23 23 23 23 23 23 23 23 23 23 23 23 23 23 23 23 24 25 26 26 26 26 26 27 27 27 27 26 26 26 26 26 26 25 25 25 25 26 26 26
23 23 23 22 22 21 21 21 21 22 21 21 21 21 21 21 21 22 21 22 22 23 23 22 22 22 22 23 23 23 23 23 23 23 23 23 23 23 23 23 24 24 25 25 25 26 26 27 27 27 27 26 26 26 26 26 26 26 26 26 26 26 26
23 23 22 21 20 20 21 21 21 21 21 21 21 21 20 21 21 21 21 22 22 23 22 22 22 22 22 22 23 23 23 23 23 22 22 22 23 23 23 22 23 23 23 24 24 25 26 26 26 27 27 26 26 26 26 27 27 27 26 26 26 26 26
23 22 21 21 21 22 22 22 22 21 21 21 21 20 20 20 20 21 21 21 21 22 22 22 22 22 21 22 22 22 21 22 22 21 21 21 21 22 22 22 22 22 22 23 24 24 24 24 25 26 26 26 26 26 27 27 27 26 26 25 25 25 26
22 21 21 22 22 22 22 22 22 21 21 21 20 20 20 20 20 20 20 20 21 21 21 21 22 21 21 22 21 21 21 21 21 21 21 21 21 21 21 21 21 21 21 22 23 23 23 24 24 25 25 26 26 26 27 26 26 25 25 25 25 25 25
23 22 23 23 23 22 22 22 22 21 20 20 19 19 19 19 19 19 19 19 20 20 20 20 21 21 21 21 21 21 21 21 21 21 21 21 21 20 21 21 21 21 21 21 22 23 23 23 24 24 24 25 25 26 26 25 24 25 24 24 25 25 25
24 24 24 24 23 23 22 21 20 19 19 19 19 18 18 18 18 18 18 18 18 18 19 19 19 19 19 20 20 20 20 21 21 21 21 21 20 20 21 21 21 21 21 21 22 22 22 23 23 24 24 24 24 25 25 23 23 23 24 24 24 24 25
24 24 24 24 23 22 21 20 19 19 18 19 18 18 17 17 17 17 17 17 17 17 17 17 17 17 17 18 18 18 19 19 19 20 20 20 20 20 21 21 21 21 21 21 21 22 22 22 22 23 23 23 24 24 23 22 22 22 23 23 24 24 24
24 24 23 23 23 22 21 21 20 18 18 17 17 17 17 17 17 17 17 16 16 16 16 16 16 16 16 17 17 17 17 18 18 18 18 19 19 20 20 20 20 20 21 21 21 21 21 22 22 22 22 23 24 23 21 21 21 21 22 23 23 23 24
24 23 23 23 23 22 21 20 20 19 18 17 17 17 16 16 16 16 16 16 16 16 16 16 16 16 16 16 16 17 17 17 18 17 17 18 18 18 18 19 19 19 20 20 21 21 21 21 21 22 22 22 23 22 20 20 21 20 21 22 22 23 23
24 23 23 22 22 22 21 20 20 19 18 17 17 16 16 17 17 16 16 15 15 16 15 15 16 16 16 16 16 16 16 17 17 17 17 17 17 17 17 18 18 18 19 19 20 20 20 21 21 21 21 21 21 21 19 19 19 20 20 21 21 22 22
23 22 22 22 22 22 21 20 19 19 18 17 17 17 17 17 17 16 16 15 15 16 15 15 15 16 15 15 16 16 16 17 17 17 17 17 17 16 17 17 17 18 18 19 19 19 20 20 20 20 20 20 20 19 19 18 19 19 19 20 21 21 22
22 22 22 22 22 21 21 20 20 19 18 18 17 17 17 17 17 17 16 16 16 16 16 15 15 16 16 16 16 16 16 16 17 16 16 17 16 16 17 17 17 18 18 19 19 19 19 20 19 19 20 19 19 19 18 18 18 18 19 20 20 21 21
21 22 22 21 21 21 21 20 20 20 19 18 18 18 17 17 17 17 17 17 17 17 16 15 15 16 16 16 17 17 16 16 16 16 16 16 16 17 17 17 17 18 18 19 19 19 19 19 19 20 20 20 20 19 18 17 18 18 18 19 19 20 20
20 20 20 20 20 20 21 20 20 20 19 19 19 18 18 18 17 17 17 17 17 17 16 16 15 15 16 16 17 17 16 16 16 16 16 16 16 17 17 17 17 18 18 19 19 18 18 18 19 20 20 20 20 19 17 17 18 18 18 19 19 19 19
20 20 20 20 20 20 20 20 20 20 20 19 19 18 18 17 17 17 17 17 17 17 16 16 16 16 15 16 16 16 16 16 16 16 16 16 17 17 17 17 17 17 18 18 19 18 18 19 19 20 20 20 20 19 17 17 17 18 18 18 18 19 19
21 21 21 20 20 20 20 20 20 20 19 19 19 18 18 17 17 16 16 16 16 16 16 16 16 16 16 16 16 16 16 16 16 16 16 16 16 17 17 17 17 17 17 18 19 19 19 19 20 20 20 20 20 19 18 17 17 17 17 18 18 18 18
21 21 21 21 20 20 19 19 19 19 18 18 18 18 18 17 16 16 16 16 16 16 16 16 16 16 16 16 16 16 16 16 16 16 16 16 16 16 17 17 17 17 17 18 19 19 19 19 20 20 20 20 20 19 18 18 17 17 17 17 17 17 17
21 21 21 20 19 19 19 19 19 19 18 18 17 17 17 17 16 16 16 15 15 16 16 16 16 16 16 16 16 16 16 16 16 16 16 16 16 16 16 16 17 17 17 18 19 19 19 19 20 20 20 20 19 19 18 18 18 18 17 16 17 17 17
20 20 20 20 19 19 19 19 19 18 18 17 17 17 17 16 16 15 15 15 16 15 15 15 16 16 16 16 16 16 16 16 16 16 16 16 17 17 17 17 17 18 18 18 19 19 19 19 19 20 19 19 19 18 18 18 18 17 16 15 15 16 16
19 19 19 19 19 19 19 19 18 18 17 17 17 17 16 16 16 15 15 16 16 15 15 15 15 16 16 16 16 16 16 16 16 16 17 16 16 17 17 17 18 18 18 17 17 18 18 19 19 18 18 18 18 18 19 19 17 15 14 14 14 14 15
19 19 18 18 18 18 18 18 18 17 17 16 16 16 16 16 15 15 16 16 15 15 15 15 15 16 16 16 17 16 16 16 16 16 16 16 16 15 15 15 16 16 16 15 14 15 16 16 17 16 17 18 17 17 18 18 16 13 12 13 13 13 14
19 18 18 18 18 18 18 18 17 17 17 16 16 16 15 15 15 16 16 15 15 15 15 15 15 15 16 16 16 16 16 16 16 15 15 16 16 15 15 14 14 14 14 13 13 14 14 14 14 14 15 16 16 15 15 15 13 12 12 12 12 13 13
19 19 19 18 18 17 17 17 16 16 16 16 16 16 16 15 15 15 15 15 15 15 14 14 15 16 16 15 15 14 15 15 15 14 14 15 15 15 15 15 14 14 13 13 13 13 13 13 13 13 13 14 14 13 13 12 12 12 12 12 12 13 13
19 19 19 18 18 17 17 16 16 16 16 16 16 16 16 16 16 15 15 15 14 14 14 14 15 15 16 15 14 14 14 14 14 14 14 14 14 14 15 15 15 14 13 13 13 12 12 12 12 12 12 12 13 13 12 12 12 12 12 12 13 13 13
Height
804 805 806 808 811 814 816 819 823 825 828 830 833 835 838 841 843 846 848 850 852 854 856 858 859 861 863 864 866 867 868 870 871 873 874 874 875 876 877 877 878 878 879 879 880 881 882 882 883 883 884 884 885 885 885 885 886 886 886 886 886 887 887
804 804 804 807 810 812 815 818 821 823 826 829 831 834 837 839 842 845 847 849 851 853 855 857 858 860 862 863 865 866 868 869 870 872 873 874 875 876 876 877 877 878 879 879 880 880 881 882 882 882 883 883 884 884 885 885 885 886 886 886 886 887 886
805 804 803 806 808 810 812 816 819 822 824 827 829 833 836 838 841 843 845 847 849 852 854 855 857 859 861 862 864 866 867 868 869 871 872 873 874 875 876 876 877 877 878 879 880 880 880 881 881 882 882 882 883 883 884 884 885 885 885 886 886 886 886
805 804 803 805 806 809 811 814 817 820 823 826 828 831 834 837 839 841 844 845 847 850 852 854 856 857 859 861 863 864 866 867 868 870 871 871 873 874 875 876 876 877 877 878 879 879 880 880 881 881 881 882 882 882 883 883 884 884 885 885 885 885 886
805 804 804 805 806 809 810 812 816 819 822 825 827 831 833 835 838 840 842 844 846 848 850 852 854 856 858 859 861 863 864 866 867 868 869 870 871 873 873 874 875 876 876 877 878 879 879 880 880 880 881 881 881 881 882 883 883 884 884 884 885 885 885
804 805 806 806 807 808 808 811 815 817 821 824 826 829 831 834 837 839 841 843 845 847 849 851 852 854 856 857 859 861 862 864 865 867 868 869 870 871 872 873 874 875 875 876 877 878 878 879 879 880 880 880 880 880 881 881 882 883 883 884 884 884 884
803 805 806 806 806 807 807 811 814 817 821 823 826 829 830 833 835 837 840 841 843 845 847 849 851 852 854 856 858 859 860 862 864 865 867 868 869 870 871 872 873 874 874 875 876 876 877 878 878 879 879 879 879 880 880 880 881 882 882 882 883 883 883
801 804 807 807 807 807 808 811 814 817 820 822 825 828 830 832 834 836 839 840 842 844 845 847 849 851 853 854 856 858 859 861 862 864 865 866 867 868 870 871 871 872 873 874 875 875 876 876 877 878 878 878 879 879 879 880 880 880 881 881 882 882 882
799 802 806 808 809 812 813 814 816 819 821 823 825 827 829 832 833 835 838 839 841 843 844 846 847 849 851 853 855 856 858 860 861 862 863 864 865 866 867 868 869 871 872 872 873 873 874 875 875 876 877 877 878 878 879 879 879 879 879 880 881 881 881
797 801 805 808 811 814 816 817 818 820 823 824 826 828 830 831 833 835 837 839 840 842 844 846 847 849 851 852 854 855 857 858 860 861 862 862 863 864 865 866 867 868 869 870 871 871 872 873 874 875 875 876 877 877 877 878 878 878 878 878 879 880 880
797 802 805 809 813 815 816 818 820 822 825 826 828 830 831 832 834 835 837 839 840 841 843 845 847 849 850 852 853 854 856 857 858 860 861 862 862 863 864 864 865 866 867 868 869 870 870 872 872 873 874 875 875 875 876 876 877 877 877 877 878 878 878
799 802 806 810 813 816 816 818 821 823 825 827 828 830 831 833 833 835 838 840 841 842 842 844 845 846 848 850 851 853 854 855 856 857 859 860 861 862 862 863 863 864 865 866 868 868 869 870 871 872 872 873 874 874 874 875 876 876 876 876 876 876 877
801 803 806 808 811 815 817 818 821 823 825 827 828 829 831 831 832 834 837 839 842 842 842 843 844 845 846 847 849 851 852 853 854 855 856 857 858 859 860 861 862 862 863 864 865 866 867 868 869 870 871 871 872 872 873 873 874 874 875 875 875 875 876
806 806 808 809 812 815 817 819 821 822 825 826 828 830 830 830 832 833 835 838 841 842 841 841 842 843 844 845 847 848 849 851 853 853 854 855 856 857 858 859 860 860 861 863 864 865 865 866 867 868 869 869 870 871 871 872 872 872 873 873 874 874 874
811 811 812 813 815 817 819 820 821 823 825 826 828 830 830 830 831 832 834 837 839 840 839 839 840 841 843 843 844 846 847 848 851 852 852 852 853 855 856 857 858 859 860 861 862 863 864 864 865 866 867 867 868 869 869 870 870 870 871 871 872 873 873
811 813 815 816 817 819 820 821 821 823 825 826 827 829 830 831 832 832 834 836 837 837 838 838 838 839 840 841 842 844 845 847 848 850 851 851 851 852 854 855 857 857 858 859 860 862 862 863 864 864 865 866 866 867 867 867 868 867 868 870 870 871 872
812 816 819 818 817 817 819 821 822 824 825 826 828 828 829 831 832 833 834 834 834 835 835 836 837 838 839 839 841 843 844 845 846 848 849 849 849 851 852 853 854 855 856 856 858 860 861 862 863 863 863 864 864 865 865 865 865 865 867 868 868 869 870
815 820 820 819 818 817 819 821 823 825 826 827 828 828 829 830 831 832 832 832 833 833 833 835 835 836 838 838 840 841 842 843 844 846 847 848 848 849 850 851 853 854 854 855 856 858 859 860 861 861 862 862 862 863 863 863 863 864 865 866 867 867 868
815 817 817 817 817 818 820 822 824 826 827 828 829 829 829 830 830 831 831 831 832 832 833 834 834 836 837 837 839 839 839 841 842 843 845 846 847 848 849 850 851 852 853 853 854 856 857 858 859 860 861 861 861 862 862 861 861 862 864 864 865 865 866
812 814 814 815 816 818 822 824 826 828 829 830 831 831 831 832 832 832 832 832 833 833 834 835 835 836 836 836 836 837 838 839 840 842 843 844 845 846 847 848 849 849 851 852 853 855 856 857 858 858 859 860 860 861 861 860 860 861 862 862 863 863 863
812 813 816 816 817 820 824 826 827 829 830 832 832 832 833 834 834 834 834 834 834 835 835 836 836 836 836 836 836 836 837 838 839 841 842 843 844 845 846 847 847 847 849 850 852 854 854 855 856 857 858 859 859 860 859 859 859 860 860 860 861 861 862
813 815 818 819 820 823 825 827 829 830 832 833 834 834 835 835 836 836 836 836 836 836 837 838 838 838 838 838 837 837 838 839 840 841 842 843 844 844 845 846 846 847 848 850 852 852 853 854 855 856 857 858 858 859 858 858 858 859 859 859 859 860 861
815 818 820 822 823 825 827 829 831 832 833 835 836 837 837 837 837 837 838 838 837 838 839 839 840 841 841 841 841 840 841 841 842 842 843 844 844 844 844 845 846 847 849 850 851 851 852 854 855 856 857 857 858 858 857 857 858 858 858 858 858 859 860
819 821 823 825 827 828 831 832 833 834 836 837 838 839 839 839 839 839 840 840 839 840 841 841 842 843 842 843 843 843 843 844 844 844 845 845 846 846 846 846 847 848 850 851 851 851 853 854 855 856 857 857 858 857 857 857 858 858 858 857 857 858 859
823 825 827 828 829 831 833 835 836 837 838 839 841 842 842 841 841 841 842 843 843 843 842 843 844 844 844 845 845 845 846 846 847 847 847 847 848 849 850 850 850 850 850 851 852 852 853 855 856 857 857 857 858 857 857 858 858 858 857 857 856 857 857
826 827 828 829 832 834 836 837 838 839 841 842 843 844 845 844 844 844 844 845 847 846 846 847 847 846 846 848 848 848 848 849 850 851 850 850 850 851 852 852 852 852 851 851 853 854 853 854 856 857 857 858 858 858 858 858 858 857 857 856 856 856 856
829 829 830 832 834 836 838 839 840 841 842 843 844 846 846 846 846 846 847 847 848 848 848 850 849 848 849 851 851 850 850 851 852 852 852 852 852 853 853 853 853 853 853 853 854 855 854 855 857 858 858 858 858 859 859 858 857 857 856 856 856 856 856
831 832 833 834 835 837 839 841 842 843 844 845 846 847 847 847 847 847 848 849 849 849 850 850 850 850 850 852 852 852 852 852 852 853 853 854 854 855 855 854 854 855 855 856 856 856 856 858 859 859 858 858 858 859 859 857 856 856 856 857 857 857 857
831 833 835 837 837 837 839 842 844 844 845 846 847 848 848 849 849 849 850 850 851 851 852 852 852 852 852 853 853 853 854 854 853 854 855 855 856 857 857 856 856 857 858 858 858 859 859 860 860 859 858 857 858 858 858 857 856 857 857 857 857 857 857
831 833 835 837 838 838 840 843 845 845 846 847 847 849 849 850 850 851 852 852 853 853 853 853 854 854 854 855 854 854 855 855 854 855 855 856 857 857 857 857 857 857 857 858 858 859 859 859 858 858 857 857 857 858 858 858 858 858 858 858 858 858 858
832 833 834 836 839 840 842 845 846 847 848 848 848 850 850 851 852 852 852 853 854 854 854 855 855 855 855 855 855 855 855 856 856 855 855 855 856 856 856 858 857 856 857 858 858 858 857 857 857 857 857 857 858 858 859 859 859 859 859 858 859 859 858
834 835 836 837 840 842 843 845 847 848 849 849 850 851 851 852 853 853 854 855 855 855 855 856 856 856 856 856 856 856 856 856 856 856 855 855 855 855 856 858 858 857 857 858 858 858 857 857 857 857 858 858 858 859 859 859 860 860 860 859 860 859 859
835 837 838 838 840 842 844 845 847 849 849 850 851 851 852 853 854 854 855 855 856 856 856 856 857 857 857 857 857 857 857 857 856 856 856 856 856 856 857 858 858 858 858 858 858 858 858 857 857 858 858 859 859 859 859 859 860 860 860 860 860 860 860
836 837 839 840 841 842 844 845 847 849 850 851 852 853 853 854 854 855 856 856 856 857 857 857 857 857 857 858 858 858 858 858 857 857 857 857 857 857 857 858 858 858 858 858 858 858 858 858 858 858 859 859 859 859 859 859 860 859 859 859 859 859 859
836 838 839 840 841 843 844 845 847 848 850 852 853 854 854 855 855 856 856 857 857 857 857 858 858 858 858 858 858 858 859 858 858 858 858 858 858 858 858 859 859 858 858 858 858 858 858 858 858 859 859 859 860 860 860 860 859 859 859 858 858 857 857
836 838 839 840 841 843 844 845 846 847 849 851 853 854 855 855 856 856 856 857 857 857 858 858 858 858 858 858 858 859 859 858 859 859 859 859 859 858 858 858 858 858 858 858 858 858 858 858 858 858 859 859 859 859 859 859 859 858 858 858 857 857 856
835 836 838 839 841 842 843 845 846 847 848 850 852 854 855 856 856 856 856 857 857 858 858 858 858 858 858 858 859 859 859 859 859 859 859 859 859 859 858 858 858 858 858 858 858 858 858 858 858 858 858 858 859 859 858 858 857 857 857 856 856 856 855
835 836 838 839 841 842 843 844 846 847 847 849 851 852 854 855 856 856 857 857 858 858 858 858 858 858 858 859 859 860 860 860 859 859 859 859 859 858 858 857 857 857 858 858 858 858 858 858 858 858 858 858 858 858 858 857 856 856 856 855 854 854 853
Wind_Speed
15 14 13 13 13 13 15 17 18 18 17 17 17 17 17 16 16 15 15 16 17 17 17 17 16 16 15 15 14 14 13 12 11 10 10 9 8 7 7 6 6 6 5 5 5 4 4 4 4 4 4 4 3 3 3 2 2 2 2 2 2 2 3
13 14 13 13 13 14 16 19 19 18 18 17 17 17 17 16 17 17 16 16 17 17 18 18 17 17 16 15 14 14 14 13 12 11 10 9 9 8 7 7 6 6 6 5 5 4 5 5 5 5 5 4 4 4 3 3 3 3 3 3 3 3 4
10 11 12 12 12 13 16 18 19 18 18 17 17 16 16 17 18 18 17 17 18 17 17 18 18 17 16 15 15 14 14 14 13 12 12 11 11 10 9 7 7 7 7 6 6 5 5 5 6 6 6 5 4 4 4 4 4 4 4 3 3 3 4
10 11 12 12 12 13 15 17 18 18 17 17 16 16 16 18 18 18 17 17 18 18 18 18 18 17 16 16 15 15 15 15 14 13 12 12 11 11 10 8 8 8 7 7 7 6 5 5 5 6 6 5 5 5 4 4 4 4 4 4 4 4 4
13 12 12 12 12 12 13 16 17 17 16 16 15 15 16 17 16 16 16 16 17 17 17 17 17 16 16 16 15 14 14 15 14 13 12 11 11 10 10 9 8 8 8 7 7 6 5 5 5 6 6 6 6 6 5 5 5 5 5 5 5 4 4
13 11 11 11 12 11 12 15 16 15 15 14 15 15 14 15 15 15 15 15 16 16 16 16 16 16 16 16 15 14 14 14 14 13 12 11 11 11 10 9 9 8 8 8 7 6 7 7 6 6 6 6 6 6 6 6 5 5 5 5 5 5 4
12 8 7 8 9 11 13 15 15 14 14 13 13 13 13 14 14 14 15 15 15 16 16 16 16 16 16 16 15 14 13 13 13 13 12 12 12 12 11 10 9 9 8 7 7 7 7 7 7 7 7 7 6 6 5 5 5 5 5 5 5 5 5
15 9 5 5 5 5 7 10 11 11 11 12 12 12 13 13 13 14 14 14 15 15 15 16 16 16 15 15 15 15 14 13 13 12 12 12 13 13 12 11 10 9 9 8 8 8 8 8 8 7 7 7 7 6 6 6 6 6 6 5 5 6 6
15 13 8 6 6 5 4 5 6 4 6 9 11 11 12 12 13 13 14 13 14 15 15 16 15 15 15 14 14 14 14 13 12 12 12 12 13 13 13 12 12 11 10 10 10 9 9 9 8 7 7 7 7 6 7 6 7 7 6 6 6 6 6
13 13 10 8 7 8 7 6 4 2 3 5 7 8 10 11 11 12 13 13 13 14 14 13 12 12 12 12 12 12 12 11 11 11 12 12 12 13 13 13 12 12 11 11 11 10 10 10 9 8 8 8 7 8 8 8 7 7 7 7 6 6 7
12 11 10 8 8 8 8 8 7 7 5 4 4 4 4 6 8 9 11 12 12 12 12 12 11 9 9 9 9 9 10 10 10 10 11 11 11 11 12 12 12 12 11 11 12 11 11 10 10 9 9 9 8 8 9 9 8 8 8 8 7 7 7
11 10 10 11 10 8 8 8 7 7 6 6 7 7 6 5 5 7 8 8 9 10 12 13 12 11 12 12 11 11 10 9 10 10 11 11 11 11 12 12 12 12 12 11 12 12 12 11 11 10 10 10 10 9 9 9 9 8 8 9 8 8 8
8 9 9 11 11 10 9 8 8 8 7 7 8 10 11 11 11 11 11 9 8 9 12 13 13 14 15 17 16 16 14 11 9 9 10 10 11 11 12 12 13 13 12 11 11 12 13 12 12 11 11 11 11 11 10 10 10 9 9 10 9 9 9
7 8 8 9 9 9 8 7 7 8 8 7 8 9 10 12 12 12 13 12 12 13 13 14 15 15 16 19 19 18 17 15 13 11 11 12 12 12 11 11 12 12 11 11 11 12 13 13 13 12 12 12 11 11 11 10 11 11 11 11 11 10 10
9 10 10 10 9 7 6 6 5 5 6 6 7 8 8 11 12 10 11 14 16 17 16 16 18 17 17 20 22 20 19 19 18 16 16 16 15 14 13 12 11 11 11 11 11 11 12 13 13 12 12 11 11 11 11 11 11 12 12 11 11 10 11
10 10 10 10 8 6 5 6 5 5 4 4 5 5 6 9 11 12 14 15 17 17 16 16 19 20 20 22 24 23 21 21 20 20 20 20 19 18 17 13 10 10 11 11 11 12 12 11 12 12 11 11 11 11 12 12 11 12 13 12 11 10 10
9 9 9 8 8 8 7 6 5 5 5 4 5 5 5 7 9 12 13 12 11 13 14 15 17 18 20 22 22 20 20 21 21 20 19 20 20 20 19 17 14 13 11 10 11 12 12 12 12 12 12 12 12 12 12 11 10 12 13 13 13 12 11
10 9 8 8 7 8 9 7 6 6 5 6 8 7 5 6 6 7 8 8 8 11 13 14 14 15 16 18 18 15 16 19 20 18 17 17 16 17 17 17 17 16 12 10 11 12 12 12 12 12 12 12 12 13 12 9 10 12 14 14 14 13 13
10 10 10 9 8 8 8 8 8 8 8 8 9 8 7 6 6 5 4 4 5 7 9 10 12 14 14 15 16 14 14 16 17 18 17 16 15 14 14 14 16 16 13 11 12 13 12 11 11 10 11 11 11 11 9 7 10 13 13 13 13 13 13
9 10 9 8 8 8 8 9 10 10 11 10 10 10 10 9 9 9 8 7 7 6 6 6 7 8 8 9 11 11 12 14 14 14 15 14 14 14 14 15 15 15 15 13 13 13 12 11 10 10 10 10 9 9 7 6 9 10 10 11 11 11 12
7 9 8 7 8 10 10 10 11 12 12 11 10 11 12 12 12 12 12 12 13 13 12 12 13 12 10 10 9 7 7 8 9 9 8 9 11 14 15 15 14 15 15 14 13 13 12 10 9 9 9 9 9 9 8 7 8 8 8 9 9 9 9
7 8 8 7 9 10 10 10 12 13 12 11 11 11 13 14 14 15 16 16 17 18 17 18 18 16 14 14 14 13 11 9 9 8 6 5 6 10 12 12 11 12 14 14 13 11 9 9 8 8 8 9 9 8 8 7 7 7 7 8 7 7 6
8 10 10 9 9 10 11 11 13 14 13 12 12 13 16 18 19 20 20 19 20 20 19 19 19 18 17 15 14 14 13 12 10 8 7 8 8 8 9 8 8 9 10 12 12 9 7 8 8 7 6 6 6 6 6 6 6 6 6 7 6 6 5
9 10 11 10 10 11 12 13 14 15 16 15 14 14 19 23 24 24 22 21 21 21 19 18 17 17 17 16 14 13 13 11 9 9 8 8 7 7 7 5 7 9 8 8 7 6 6 7 7 6 5 5 4 5 5 3 3 4 5 6 7 7 6
10 11 11 10 10 11 12 15 16 17 17 17 14 13 16 18 19 19 17 16 17 19 19 17 15 16 17 16 14 13 12 11 10 9 9 9 9 9 8 6 6 7 7 6 6 5 5 6 6 6 6 5 5 5 4 3 1 2 3 4 5 7 7
10 11 11 10 11 12 13 15 15 16 16 15 13 11 10 11 12 13 13 11 11 14 15 14 13 14 14 13 12 12 12 12 10 9 9 10 9 8 8 7 6 7 8 7 6 7 8 8 7 7 6 6 6 6 5 4 3 2 1 1 2 4 6
9 10 11 12 12 12 12 12 12 13 14 13 12 11 10 9 11 11 11 11 10 12 13 12 11 12 11 9 9 10 11 11 10 9 9 9 9 9 9 8 7 7 7 6 6 7 8 7 7 6 6 5 6 6 6 5 4 5 5 4 3 2 2
9 9 10 12 12 12 11 11 11 12 13 12 11 11 10 10 12 11 11 12 12 11 11 11 11 11 11 9 9 9 9 8 9 10 9 9 9 9 9 10 9 7 6 6 8 8 7 4 4 6 6 6 6 6 6 5 4 4 4 4 4 4 3
11 10 10 11 11 12 12 11 11 11 11 11 10 10 10 11 12 12 11 12 11 10 10 10 10 10 9 8 9 9 8 8 9 9 8 8 8 8 8 9 8 8 6 5 7 9 9 8 7 6 7 7 6 6 7 6 6 5 5 4 3 3 2
10 11 12 12 12 12 12 11 10 9 10 10 9 9 9 10 12 12 12 11 10 9 10 10 9 10 9 7 8 8 7 7 7 7 7 7 7 7 7 7 7 6 6 4 4 6 7 7 5 5 5 5 5 6 6 6 6 5 5 4 4 4 3
10 11 12 13 12 12 12 11 10 10 9 9 8 8 8 9 11 12 11 10 9 9 9 9 8 9 8 7 7 7 6 6 6 6 6 6 5 6 6 6 6 5 4 3 3 3 3 4 4 3 3 3 4 4 4 4 3 3 4 4 4 4 3
10 11 12 14 13 12 12 11 11 10 10 9 8 8 8 9 10 11 11 9 9 8 8 8 8 8 7 7 7 6 5 5 5 5 6 6 4 4 4 4 4 4 3 2 2 2 2 2 2 2 3 3 3 3 3 2 2 2 4 5 5 5 5
10 10 12 13 14 13 12 11 11 10 10 9 8 8 9 9 9 10 10 9 8 8 8 7 7 6 6 6 6 5 4 4 4 4 4 4 3 3 3 2 2 2 2 2 2 1 1 1 1 1 1 2 2 2 2 2 2 3 4 5 5 5 5
10 10 11 13 13 12 11 11 11 11 10 10 9 8 9 9 8 8 7 7 7 7 7 6 6 5 5 4 4 4 4 3 3 3 3 3 3 3 3 2 2 2 3 3 3 2 1 1 1 2 1 1 1 1 2 2 3 4 5 6 6 5 5
10 11 11 12 12 11 11 12 12 11 11 9 9 8 8 7 7 6 6 5 5 5 6 6 5 5 4 4 3 3 3 3 3 3 2 2 3 2 2 3 2 2 4 4 2 1 2 2 2 2 2 2 1 1 0 1 3 4 4 5 6 6 6
11 11 11 12 11 10 10 11 12 12 11 10 9 8 7 6 6 5 5 5 5 5 5 5 5 4 4 3 4 3 3 3 3 3 2 2 2 2 2 2 1 1 2 1 1 1 3 3 1 1 1 2 3 2 2 1 2 3 4 5 6 6 6
13 13 13 12 11 10 10 10 11 12 12 11 9 8 7 6 6 5 5 5 5 5 5 4 3 4 4 4 4 3 2 2 3 2 2 2 2 1 1 1 1 1 0 1 1 2 3 3 3 3 3 2 2 3 4 5 5 6 6 7 7 8 8
13 13 13 12 11 11 11 11 11 12 13 12 10 9 8 7 6 6 5 5 5 5 4 3 3 3 3 4 4 3 2 1 2 2 2 2 2 1 1 1 1 1 0 2 1 2 4 5 4 3 2 2 2 1 3 6 6 7 8 9 11 11 12
Wind_Direction
195 191 189 187 188 190 192 194 196 198 197 195 196 196 196 195 193 192 191 190 192 193 195 198 200 202 205 207 207 205 203 203 202 203 205 207 207 202 199 198 197 199 198 194 186 179 182 186 189 191 195 207 214 217 227 230 223 231 239 244 256 267 268
196 192 188 187 188 189 191 194 198 199 198 198 199 198 197 194 192 193 191 189 191 194 196 199 201 204 207 208 209 208 207 206 205 205 206 208 210 209 209 208 203 199 204 205 192 189 196 199 203 203 201 205 205 203 215 221 219 227 229 232 248 258 264
192 193 190 187 188 189 189 194 198 200 200 201 201 199 196 193 191 191 189 189 191 194 196 198 202 205 207 208 209 210 210 209 208 208 210 213 214 215 215 215 212 205 201 203 203 205 206 201 204 208 205 204 198 195 206 211 214 223 223 225 240 250 258
183 189 192 190 190 191 189 192 197 199 201 203 202 198 195 193 192 192 192 191 190 193 196 199 203 206 207 207 209 210 212 213 214 214 217 218 217 218 217 215 214 210 203 202 207 211 212 204 201 204 205 205 200 195 203 208 208 212 215 223 236 244 252
177 184 191 192 191 191 189 190 195 198 200 201 200 199 197 194 193 193 194 193 193 195 198 202 206 208 208 208 209 210 211 214 217 219 222 222 218 216 217 217 215 211 210 209 208 210 215 217 210 206 206 206 204 201 201 203 204 205 208 220 234 243 242
172 177 185 191 192 189 187 191 195 196 197 197 196 197 196 194 195 196 195 193 193 195 198 204 208 207 208 210 211 211 210 211 215 219 222 223 219 216 218 220 218 216 214 213 213 213 215 218 216 212 212 212 209 205 200 201 207 206 208 219 232 246 248
168 162 167 178 185 188 187 192 195 193 193 194 193 193 190 191 193 195 196 194 193 194 197 203 207 206 207 211 212 212 211 211 213 216 220 221 219 220 222 223 223 223 220 216 216 219 218 217 216 215 217 220 219 213 204 201 207 211 214 224 231 240 247
170 159 138 134 139 152 164 174 181 183 188 191 190 188 186 188 191 193 195 194 195 197 198 201 202 202 204 207 210 212 213 214 214 214 218 220 218 219 221 222 222 224 225 224 222 220 219 217 216 215 216 221 221 220 216 206 209 216 219 227 234 240 244
168 163 156 137 111 103 118 142 145 151 188 197 194 192 191 191 193 195 196 195 197 199 200 200 199 198 200 201 205 209 212 215 215 215 217 219 219 218 218 220 220 219 223 229 228 221 216 214 214 210 212 220 219 216 220 217 214 218 219 223 231 239 247
168 166 160 146 130 142 165 165 151 155 216 206 190 190 199 199 196 196 196 196 199 201 201 198 196 196 197 200 203 206 210 214 216 219 221 221 221 221 221 221 220 219 222 228 230 224 214 210 211 207 207 218 220 215 218 221 221 224 223 223 228 234 242
169 172 165 154 145 155 165 159 160 174 187 192 182 183 200 202 199 202 201 200 199 197 193 190 189 186 185 189 194 195 201 208 213 220 225 226 227 228 228 228 227 226 226 229 232 229 217 209 209 208 210 218 221 218 217 218 223 229 230 228 228 230 235
166 171 171 166 161 161 159 149 148 153 158 182 212 234 242 225 202 201 203 206 205 198 190 186 187 188 191 195 194 192 197 206 214 219 221 225 230 230 231 232 231 230 229 229 232 231 224 217 214 213 215 219 223 223 220 220 223 228 233 236 235 233 235
165 170 172 172 169 162 156 151 151 154 160 173 194 215 223 219 215 216 217 221 224 206 189 184 186 190 202 210 207 204 205 204 208 214 214 217 221 223 226 229 229 231 232 229 228 228 226 224 222 221 220 222 225 227 225 224 225 225 229 236 239 238 238
137 146 146 151 152 146 145 151 157 160 165 171 180 190 201 208 215 219 215 217 224 219 205 202 201 197 202 209 208 208 212 214 215 214 210 209 212 216 219 222 224 227 229 230 228 227 227 227 226 225 225 225 225 226 225 225 226 226 226 231 237 240 240
133 133 129 130 129 124 135 148 154 157 158 169 183 184 188 202 209 206 200 206 219 222 214 208 208 205 203 207 211 216 224 228 229 226 219 216 218 222 223 221 222 223 222 224 228 230 230 230 229 227 226 225 223 222 224 225 227 225 221 223 230 238 242
146 138 128 129 137 143 151 159 164 168 170 170 165 159 174 199 204 200 200 206 214 217 210 200 202 206 210 215 222 229 231 231 230 227 225 225 226 230 230 227 224 223 220 220 226 231 230 229 229 227 224 223 220 220 223 227 230 225 220 222 228 236 245
135 124 122 140 162 160 152 160 166 162 165 151 120 122 164 194 199 201 205 206 209 211 207 201 202 207 212 219 225 227 226 223 222 223 227 227 227 232 234 233 228 224 220 220 223 227 227 227 228 229 229 226 222 220 223 227 228 224 225 231 236 239 245
124 122 134 151 152 138 133 137 140 135 125 102 93 102 134 160 174 194 204 204 210 214 212 209 210 210 213 217 218 217 216 216 216 221 227 228 226 228 231 233 232 226 220 217 221 224 226 227 228 230 232 231 227 226 226 225 224 224 231 242 248 246 245
132 136 141 141 129 121 118 113 110 105 95 90 92 97 105 111 115 117 127 153 183 200 204 206 210 212 215 215 213 213 214 213 214 219 224 225 224 224 225 227 227 225 221 216 219 223 225 225 224 225 229 231 232 230 225 222 226 229 238 249 253 252 248
132 128 126 129 123 111 101 98 98 94 89 91 94 94 95 95 94 92 92 94 95 108 124 134 151 171 183 189 195 203 208 211 215 219 222 224 223 223 225 224 220 220 222 218 213 214 217 217 216 218 221 221 226 225 216 217 230 235 240 246 247 249 249
126 119 119 124 115 106 105 104 99 92 90 92 92 92 92 91 91 93 93 90 86 85 88 92 96 99 104 115 127 142 169 187 195 200 207 218 220 219 220 216 208 206 209 210 207 205 204 202 204 211 214 215 219 216 204 212 231 235 235 238 240 245 248
111 106 110 118 114 111 114 111 103 99 96 94 91 90 89 87 87 90 88 86 85 84 85 89 89 82 78 86 95 100 104 114 130 144 145 151 181 195 196 196 193 191 194 197 197 194 193 195 199 206 212 217 221 208 188 198 220 224 226 233 234 236 238
98 97 101 113 116 111 109 108 108 109 106 99 94 94 97 97 96 95 90 85 84 83 80 80 81 76 71 69 72 78 83 88 96 103 108 115 122 136 151 164 170 171 178 184 184 182 181 184 189 197 201 208 213 190 166 182 211 215 217 223 219 214 218
97 101 106 116 119 114 113 112 111 111 109 103 97 97 105 108 104 98 90 84 86 87 80 73 73 74 73 69 64 66 70 72 72 71 81 91 84 80 90 111 137 148 153 157 160 158 161 165 166 169 172 177 180 167 154 174 233 243 233 229 220 212 216
101 105 111 119 120 120 119 114 111 110 109 105 101 100 104 105 100 95 87 81 84 86 81 76 77 79 79 78 79 79 77 74 70 65 66 67 60 56 57 68 106 124 120 118 126 130 141 150 142 132 128 132 141 142 137 146 187 262 262 254 238 225 227
95 107 114 114 114 118 120 119 118 116 113 111 111 110 108 100 94 94 96 96 94 90 86 85 87 86 84 83 86 89 88 84 78 67 63 66 68 71 67 59 71 93 100 110 123 131 134 130 123 122 121 122 130 125 115 121 119 87 55 351 273 230 226
86 98 108 114 118 119 117 118 117 112 110 112 115 116 115 107 98 96 100 103 100 97 99 103 101 96 92 91 91 89 89 91 88 80 74 70 75 88 90 80 74 84 98 107 115 125 127 113 109 127 136 135 138 124 108 113 107 77 69 68 62 83 176
108 102 108 119 125 123 117 116 116 113 112 113 113 115 115 109 103 99 98 97 94 96 104 110 108 102 96 93 92 89 88 94 93 87 80 72 70 78 84 84 87 90 92 101 114 128 140 139 132 138 134 131 137 126 105 102 100 79 68 69 71 80 89
133 129 130 133 130 125 123 123 122 117 114 111 108 109 110 107 105 102 100 99 98 100 105 106 106 108 104 97 93 88 84 88 88 81 72 67 66 68 71 78 89 91 88 103 125 134 143 153 158 148 133 126 125 118 102 89 85 83 75 67 62 68 79
145 145 145 142 136 129 126 124 121 112 105 103 103 106 110 111 110 108 104 103 104 105 106 104 104 106 105 100 95 89 79 77 80 77 72 63 54 55 64 71 79 80 77 91 122 131 134 142 146 140 135 129 118 110 104 94 89 82 75 73 68 63 66
151 147 141 135 133 132 129 128 125 115 105 101 99 100 106 113 115 113 108 107 108 107 105 105 105 103 100 94 91 88 82 78 74 69 71 66 49 41 43 45 58 67 64 69 97 110 118 130 136 134 135 132 120 113 107 103 103 77 44 36 38 39 36
154 148 140 135 134 137 137 132 126 120 113 108 105 105 107 112 115 114 113 114 112 106 103 104 103 99 97 93 87 81 76 75 71 64 62 64 62 58 42 25 39 63 68 74 99 107 112 126 143 153 149 136 128 124 110 108 120 93 47 31 22 8 358
155 154 151 145 142 143 142 136 131 127 120 114 112 111 112 115 116 118 121 123 118 113 110 108 105 103 103 100 98 93 82 72 67 65 63 59 58 72 71 44 37 74 88 88 87 102 153 166 157 133 128 127 129 138 152 153 128 75 38 26 20 9 0
161 158 154 147 144 145 142 136 133 131 125 121 120 118 117 119 118 119 122 120 116 116 115 110 109 110 109 110 110 105 99 93 85 77 70 64 55 52 50 34 21 50 60 54 47 48 50 61 78 71 48 43 94 141 202 174 106 52 18 4 2 359 359
167 160 153 147 147 146 143 139 137 133 129 127 128 126 123 125 126 127 126 120 115 116 115 111 111 107 103 106 104 92 89 94 89 80 75 81 87 84 58 27 14 53 59 45 33 86 96 74 61 49 20 8 33 43 241 90 55 22 347 340 344 342 344
171 167 161 154 150 145 139 137 137 135 134 135 136 133 132 135 137 133 127 120 117 115 113 114 114 109 105 100 87 72 61 62 66 64 58 64 86 106 94 42 20 90 96 60 336 195 165 160 162 145 72 46 39 19 339 344 350 319 309 318 325 323 325
180 177 171 163 157 150 143 143 146 145 143 144 144 142 144 146 141 132 122 117 115 114 112 111 111 107 106 99 86 69 49 41 41 38 35 34 33 60 136 126 90 70 11 293 245 197 184 189 204 208 194 162 77 13 334 309 287 282 291 299 301 304 306
187 184 178 171 167 162 159 162 166 161 155 152 150 150 155 152 143 136 130 122 116 111 104 101 105 102 97 97 98 90 68 42 21 5 359 354 351 344 294 215 176 169 334 346 325 200 183 181 186 191 204 215 203 231 310 303 290 288 294 295 295 298 299